Weather in Seleznevo

Russia / Saint-Petersburg and Leningrad Oblast     60°45′24″N   28°37′09″E
temp.,
°C
wind,
m/s
gust,
m/s
humid.,
%
clouds,
%
prec.,
mm/h
press.,
hPa
HPBL,
m
16 october, sat
sat1600:00+8sw8158499 3.1 9921320
03:00+4wsw7147612 3.3 9931126
06:00+5wsw6137399 0.0 9941225
09:00+4wsw61371100 0.0 9951166
12:00+6wsw613645 0.0 9961404
15:00+7wsw713595 0.0 9961678
18:00+6wsw613657 0.0 997966
21:00+5wsw5127199 0.1 997702
17 october, sun
sun1700:00+5wsw5147695 0.0 997836
03:00+5wsw513755 0.0 996728
06:00+4w513826 0.0 997819
09:00+3w512797 0.0 998925
12:00+6w612625 0.0 10001190
15:00+7w611605 0.0 10001483
18:00+5w512665 0.0 10011043
21:00+4w511745 0.0 1001940
18 october, mon
mon1800:00+3wsw512755 0.0 1001726
03:00+2w5127984 0.0 1000589
06:00+3wnw51196100 0.1 1000879
09:00+3wnw51296100 0.8 1002717
12:00+5nw586828 0.3 10051100
15:00+4nw597575 0.4 10071033
18:00+4nnw5108194 0.1 1010868
21:00+4nnw597799 0.2 1012890
19 october, tue
tue1900:00+3nnw4982100 0.1 1014598
03:00+3nnw488396 0.3 1016812
06:00+1nw499498 0.3 1018562
09:00+1nnw487686 0.6 1019974
12:00+2nnw576099 0.1 10211422
15:00+2nnw465774 0.2 10221380
18:00−1nw237048 0.0 102270
21:00−1wnw237279 0.0 102260
20 october, wed
wed2000:00−1w1171100 0.0 102118
03:000sse126787 0.0 101973
06:00+1sse3868100 0.0 1016296
09:00+2sse61068100 0.0 1012904
12:00+2sse81592100 0.4 1007802
15:00+3sse81496100 5.4 1001974
18:00+5s81493100 2.3 995980
21:00+6s81595100 7.4 990950